Home   Weather   Itzehoe   Past weeks

Flag for Germany Past Weather in Itzehoe, Schleswig-Holstein, Germany — Yesterday and Last 2 Weeks

Now
52 °F

Cool.


Feels Like: 51 °F
Forecast: 50 / 67 °F
Wind: 3 mph from North

Location: Hohn

Current Time: Sep 25, 2016 at 4:05:23 AM

Latest Report: Sep 25, 2016 at 3:20 AM


Visibility: 4 mi

Pressure: 30.15 "Hg

Humidity: 88%

Dew Point: 48 °F

Location of ItzehoeLocation

Past Weather in Itzehoe — Graph

°F

Itzehoe Temperature Yesterday

Maximum temperature yesterday: 66 °F (at 3:20 PM)
Minimum temperature yesterday: 45 °F (at 3:20 AM)
Average temperature yesterday: 55 °F

High & Low Weather Summary for the Past Weeks

 TemperatureHumidityPressure
High86 °F (Sep 13, 3:20 PM)100% (Sep 10, 6:20 AM)30.24 "Hg (Sep 10, 6:20 AM)
Low45 °F (Sep 24, 3:20 AM)38% (Sep 13, 4:20 PM)29.89 "Hg (Sep 16, 6:20 AM)
Average62 °F81%30.08 "Hg
* Reported Sep 10 2:20 AM — Sep 25 2:20 AM, Itzehoe, Weather by CustomWeather, © 2016

Note: Actual official high and low records may vary slightly from our data, if they occured in-between our weather recording intervals... More about our weather records

Advertising

Itzehoe Weather History for the Previous 24 Hours

Scroll right to see more
 ConditionsComfort  
Time TempWeatherWind HumidityBarometerVisibility
2:20 AM
Sun, Sep 25
54 °FCool.5 mph88%30.15 "Hg4 mi
1:20 AM54 °FCool.3 mph88%30.15 "Hg4 mi
12:20 AM52 °FCool.3 mph94%30.15 "Hg4 mi
11:20 PM
Sat, Sep 24
50 °FCool.2 mph94%30.18 "Hg4 mi
10:20 PM52 °FCool.2 mph94%30.18 "Hg4 mi
9:20 PM55 °FCool.2 mph88%30.18 "Hg4 mi
8:20 PM57 °FCool.1 mph82%30.15 "Hg4 mi
7:20 PM59 °FPassing clouds.2 mph82%30.18 "HgN/A
6:20 PM63 °FScattered clouds.2 mph73%30.18 "HgN/A
5:20 PM66 °FScattered clouds.5 mph60%30.18 "HgN/A
4:20 PM66 °FScattered clouds.7 mph60%30.18 "HgN/A
3:20 PM66 °FScattered clouds.7 mph60%30.21 "HgN/A
2:20 PM64 °FPartly sunny.7 mph64%30.21 "HgN/A
1:20 PM64 °FBroken clouds.7 mph60%30.24 "HgN/A
12:20 PM63 °FPartly sunny.8 mph64%30.24 "HgN/A
11:20 AM61 °FScattered clouds.7 mph72%30.24 "HgN/A
10:20 AM59 °FScattered clouds.7 mph77%30.24 "HgN/A
9:20 AM55 °FPassing clouds.6 mph88%30.24 "HgN/A
8:20 AM52 °FCool.7 mph94%30.24 "Hg4 mi
7:20 AM48 °FCool.7 mph100%30.24 "Hg4 mi
6:20 AM50 °FCool.7 mph94%30.24 "Hg5 mi
5:20 AM46 °FCool.3 mph100%30.24 "Hg5 mi
4:20 AM45 °FQuite cool.3 mph100%30.24 "Hg5 mi
Weather by CustomWeather, © 2016

See weather overviewHow to use our weather pages